Location: Laterina
(43.5167°N, 11.7167°E)
Time: 02:07:52
(UTC+00:00)

CUBEBUG 2 - Visible Passes

Search period start: 27 February 2021 00:00
Search period end: 09 March 2021 00:00
Orbit: 586 x 696 km, 97.7° (Epoch: 26 February)

Date Brightness Start Highest point End Pass type
(mag) Time Alt. Az. Time Alt. Az. Time Alt. Az.
27 Feb ? 03:00:27 10° NNE 03:03:13 34° NE 03:03:13 34° NE visible
27 Feb ? 04:38:09 10° NNW 04:40:51 17° WNW 04:40:51 17° WNW visible
28 Feb ? 03:24:16 10° N 03:27:30 46° N 03:27:30 46° N visible
01 Mar ? 02:12:48 10° NE 02:14:10 15° ENE 02:14:10 15° ENE visible
01 Mar ? 03:48:17 10° N 03:51:46 41° NW 03:51:46 41° NW visible
02 Mar ? 02:35:55 10° NNE 02:38:26 25° ENE 02:38:26 25° ENE visible
02 Mar ? 04:12:33 10° N 04:16:03 27° WNW 04:16:03 27° WNW visible
03 Mar ? 02:59:28 10° NNE 03:02:42 41° NE 03:02:42 41° NE visible
03 Mar ? 04:37:10 10° NNW 04:39:58 16° WNW 04:40:20 16° WNW visible
04 Mar ? 03:23:16 10° N 03:26:59 60° N 03:26:59 60° N visible
05 Mar ? 02:11:51 10° NE 02:13:37 16° ENE 02:13:37 16° ENE visible
05 Mar ? 03:47:18 10° N 03:51:15 45° WNW 03:51:15 45° WNW visible
06 Mar ? 02:34:56 10° NE 02:37:54 27° ENE 02:37:54 27° ENE visible
06 Mar ? 04:11:33 10° N 04:15:17 27° WNW 04:15:31 27° WNW visible
07 Mar ? 02:58:28 10° NNE 03:02:10 48° ENE 03:02:10 48° ENE visible
07 Mar ? 04:36:11 10° NNW 04:38:55 16° WNW 04:39:47 15° WNW visible
08 Mar ? 03:22:16 10° NNE 03:26:26 78° N 03:26:26 78° N visible
